TimePDT,TemperatureF,Dew PointF,Humidity,Sea Level PressureIn,VisibilityMPH,Wind Direction,Wind SpeedMPH,Gust SpeedMPH,PrecipitationIn,Events,Conditions,WindDirDegrees,DateUTC
12:53 AM,37.9,32.0,79,30.22,9.0,Calm,Calm,-,N/A,,Clear,0,2013-06-14 07:53:00
1:53 AM,37.0,32.0,82,30.22,10.0,Calm,Calm,-,N/A,,Clear,0,2013-06-14 08:53:00
2:53 AM,36.0,30.9,82,30.21,10.0,Calm,Calm,-,N/A,,Clear,0,2013-06-14 09:53:00
3:53 AM,35.1,30.9,85,30.19,10.0,Calm,Calm,-,N/A,,Clear,0,2013-06-14 10:53:00
4:53 AM,32.0,28.9,88,30.20,10.0,Calm,Calm,-,N/A,,Clear,0,2013-06-14 11:53:00
5:53 AM,34.0,30.0,85,30.20,10.0,ENE,4.6,-,N/A,,Clear,70,2013-06-14 12:53:00
6:53 AM,43.0,35.1,74,30.19,10.0,NE,3.5,-,N/A,,Clear,50,2013-06-14 13:53:00
7:53 AM,48.0,35.1,61,30.18,10.0,NE,4.6,-,N/A,,Clear,40,2013-06-14 14:53:00
8:53 AM,51.1,34.0,52,30.17,10.0,Variable,3.5,-,N/A,,Clear,0,2013-06-14 15:53:00
9:53 AM,54.0,30.9,41,30.16,10.0,Variable,3.5,-,N/A,,Clear,0,2013-06-14 16:53:00
10:53 AM,57.9,26.1,30,30.13,10.0,ENE,4.6,-,N/A,,Clear,60,2013-06-14 17:53:00
11:53 AM,61.0,28.0,29,30.12,10.0,Variable,3.5,-,N/A,,Clear,0,2013-06-14 18:53:00
12:53 PM,66.0,28.0,24,30.09,10.0,NNE,8.1,-,N/A,,Clear,20,2013-06-14 19:53:00
1:53 PM,68.0,27.0,21,30.06,10.0,Variable,3.5,-,N/A,,Clear,0,2013-06-14 20:53:00
2:53 PM,69.1,25.0,19,30.04,10.0,Variable,3.5,-,N/A,,Clear,0,2013-06-14 21:53:00
3:53 PM,71.1,21.9,16,30.01,10.0,Calm,Calm,-,N/A,,Clear,0,2013-06-14 22:53:00
4:53 PM,71.1,21.0,15,30.00,10.0,WSW,3.5,-,N/A,,Clear,240,2013-06-14 23:53:00
5:53 PM,72.0,21.0,15,29.97,10.0,Calm,Calm,-,N/A,,Clear,0,2013-06-15 00:53:00
6:53 PM,71.1,21.0,15,29.94,10.0,Calm,Calm,-,N/A,,Clear,0,2013-06-15 01:53:00
7:53 PM,69.1,26.1,20,29.93,10.0,NNW,8.1,-,N/A,,Clear,340,2013-06-15 02:53:00
8:53 PM,61.0,32.0,34,29.94,10.0,NNW,5.8,-,N/A,,Clear,340,2013-06-15 03:53:00
9:53 PM,55.0,26.1,33,29.95,10.0,Calm,Calm,-,N/A,,Clear,0,2013-06-15 04:53:00
10:53 PM,52.0,30.9,45,29.95,10.0,Calm,Calm,-,N/A,,Clear,0,2013-06-15 05:53:00
11:53 PM,50.0,30.0,46,29.94,10.0,Calm,Calm,-,N/A,,Clear,0,2013-06-15 06:53:00